Location: Beaver Meadows
(40.3729°N, 105.6140°W)
Time: 09:15:00
(UTC-06:00)

Iridium 67 - Visible Passes

Search period start: 29 March 2017 00:00
Search period end: 08 April 2017 00:00
Orbit: 776 x 779 km, 86.4° (Epoch: 27 March)

Date Brightness Start Highest point End Pass type
(mag) Time Alt. Az. Time Alt. Az. Time Alt. Az.
29 Mar 8.5 04:28:26 10° ESE 04:31:06 14° ENE 04:33:46 10° NE visible
29 Mar 5.5 06:06:03 10° SSW 06:11:11 64° W 06:16:22 10° N visible
30 Mar 5.8 05:32:31 10° S 05:37:40 70° E 05:42:51 10° N visible
31 Mar 7.0 04:59:32 10° SSE 05:04:17 37° E 05:09:03 10° NNE visible
01 Apr 8.0 04:27:14 10° SE 04:31:00 21° E 04:34:47 10° NE visible
01 Apr 5.9 06:06:26 10° SSW 06:11:21 43° W 06:16:20 10° N visible
02 Apr 8.6 03:56:35 10° E 03:57:51 11° ENE 03:59:07 10° ENE visible
02 Apr 5.5 05:32:34 10° S 05:37:46 81° W 05:43:00 10° N visible
03 Apr 6.2 04:59:16 10° SSE 05:04:18 54° E 05:09:23 10° NNE visible
04 Apr 7.4 04:26:31 10° SE 04:30:57 29° E 04:35:25 10° NNE visible
04 Apr 6.3 06:07:02 10° SW 06:11:35 30° W 06:16:09 10° NNW visible
05 Apr 8.2 03:54:36 10° ESE 03:57:44 16° ENE 04:00:51 10° NE visible
05 Apr 5.6 05:32:49 10° SSW 05:37:54 56° W 05:43:02 10° N visible
06 Apr 5.6 04:59:11 10° S 05:04:22 80° E 05:09:35 10° N visible
07 Apr 6.7 04:26:05 10° SSE 04:30:57 42° E 04:35:50 10° NNE visible
